Regional Weather Roundup
Issued by NWS Charleston, SC

Current Version | Previous Version | Graphics & Text | Print | Product List | Glossary On
Versions: 1 2 3 4 5 6 7 8 9 10 11 12 13 14 15 16 17 18 19 20 21 22 23 24 25 26 27 28 29 30 31 32 33 34 35 36 37 38 39 40 41 42 43 44 45 46 47 48 49 50
000 ASUS42 KCHS 062327 RWRCHS REGIONAL WEATHER ROUNDUP NATIONAL WEATHER SERVICE CHARLESTON SC 700 PM EDT MON JUL 06 2015 NOTE: "FAIR" INDICATES FEW OR NO CLOUDS BELOW 12,000 FEET WITH NO SIGNIFICANT WEATHER AND/OR OBSTRUCTIONS TO VISIBILITY. NOT ALL STATIONS ARE QUALITY CONTROLLED BY THE NATIONAL WEATHER SERVICE. USE DATA WITH CAUTION...ESPECIALLY DEWPOINT OBSERVATIONS. SCZ027-030-031-034>040-042>050-070000- ...SOUTHEAST SOUTH CAROLINA... CITY SKY/WX TMP DP RH WIND PRES REMARKS N CHARLESTON MOSUNNY 84 72 67 S12 30.09R WATERFRONT PAR N/A 82 73 74 S12 30.07F MOUNT PLEASANT LGT RAIN 82 72 69 S10 30.10S JOHNS ISLAND FAIR 82 73 74 S9 30.10S PINOPOLIS NOT AVBL MONCKS CORNER FAIR 86 70 58 CALM 30.08S HX 90 SUMMERVILLE FAIR 86 73 66 S3 30.09S HX 93 BEAUFORT MCAS SUNNY 83 74 74 SE6 30.09S BEAUFORT ARPT FAIR 81 73 78 S7 30.09F HILTON HEAD IS MOSUNNY 81 73 78 S7 30.11S WALTERBORO MOCLDY 84 72 65 S7 30.09S ALLENDALE FAIR 86 70 58 CALM 30.07S HX 90 ...SOUTHERN MIDLANDS AND PEE DEE... CITY SKY/WX TMP DP RH WIND PRES REMARKS GEORGETOWN NOT AVBL KINGSTREE NOT AVBL ORANGEBURG SUNNY 86 68 54 SW7 30.08S BARNWELL FAIR 88 72 58 S7 30.08S HX 94 AIKEN NOT AVBL MANNING FAIR 84 64 51 CALM 30.08R COLUMBIA PTSUNNY 88 69 53 S8 30.06S HX 92 SUMTER SUNNY 87 69 54 S8 30.05F HX 91 FLORENCE SUNNY 87 69 54 S7 30.07S HX 91 MYRTLE BEACH MOSUNNY 82 72 69 S9 30.12S N MYRTLE BEACH PTSUNNY 83 73 72 SW10 30.10S $$ GAZ063-065-086>088-099>101-113>116-118-119-134>141-150-070000- ...SOUTHEAST GEORGIA... CITY SKY/WX TMP DP RH WIND PRES REMARKS SAVANNAH ARPT TSTM 81 73 78 S15 30.09R HUNTER AAF MOSUNNY 81 76 85 SE8 30.07S FORT STEWART PTSUNNY 84 70 61 SE9 30.06F STATESBORO NOT AVBL SYLVANIA PTCLDY 86 72 61 SW3 30.09S HX 92 CLAXTON FAIR 86 70 58 W5 30.08S HX 90 ...CSRA...CENTRAL AND FAR SOUTHEAST GEORGIA... CITY SKY/WX TMP DP RH WIND PRES REMARKS THOMSON SUNNY 87 72 60 SW3 30.13R HX 94 AUGUSTA-BUSH MOSUNNY 86 69 56 S7 30.06S THUNDER HX 90 AUGUSTA-DANIEL CLOUDY 87 68 52 VRB7 30.09R THUNDER HX 90 SWAINSBORO FAIR 86 70 58 CALM 30.09S HX 90 VIDALIA MOSUNNY 86 68 54 W6 30.09S EASTMAN MOCLDY 84 71 66 NW6 30.12S HAZLEHURST FAIR 86 71 59 CALM 30.08F HX 91 ALMA MOSUNNY 84 68 58 W6 30.09F WAYCROSS MOSUNNY 89 73 60 NW6 30.09F HX 97 JESUP FAIR 88 70 55 W3 30.09S HX 92 BAXLEY CLOUDY 86 68 54 W3 30.09S BRUNSWICK MOSUNNY 81 73 78 SE10 30.11S SAINT SIMONS MOSUNNY 80 72 76 S7 30.10F $$ SCZ027-028-034-036>038-045-046-048>050-GAZ119-141-070000- ...LAKE AND SUPPLEMENTAL COASTAL OBSERVATIONS... STATION/POSITION TIME TEMP WIND PRES WAVE SWELL AIR SEA DIR/SP/G HT/PER HT/PER/DIR (UTC) (F) (DEG/KT/KT) (MB) (FT/S) (FT/S/D) UPR LAKE MARION NOT AVBL WINYAH BAY 2245 80 190/ 7 1018.0S LAKE MURRAY 2200 87 200/ 7/ 8 1017.3F ACE BASIN NERRS 2200 82 100/ 2 1019.0 FORT PULASKI 2300 80 84 150/ 7/ 11 1019.7F SAPELO ISLAND 2300 84 130/ 5 1019.0S $$ ANZ835-935-AMZ111-154-330-350-352-354-370-450-454-472-070000- ...C-MAN AND BUOY OBSERVATIONS... STATION/POSITION TIME TEMP WIND PRES WAVE SWELL AIR SEA DIR/SP/G HT/PER HT/PER/DIR (UTC) (F) (DEG/KT/KT) (MB) (FT/S) (FT/S/D) BUOY 41004 2250 80 83 200/ 10/ 12 1019.6R 3/ 9 2/ 9 BUOY 41008 2250 79 80 160/ 12/ 14 1019.6F 2/ 8 2/110/ 8 FOLLY BEACH CMAN 2300 80 190/ 13/ 15 1019.6R CAPERS NEARSHORE 2208 81 200/ 14/ 17 1019.6F FRIPP NEARSHORE 2200 80 170/ 12/ 14 1019.1 STATION/POSITION TIME TEMP WIND PRES WAVE SWELL AIR SEA DIR/SP/G HT/PER HT/PER/DIR (UTC) (F) (DEG/KT/KT) (MB) (FT/S) (FT/S/D) 5E ST. MARYS GA 2221 78 N/A 2/ 9 FRYING PAN BUOY 2250 82 80 180/ 10/ 12 1020.2R 3/ 8 2/110/ 8 BUOY 41025 2250 81 82 200/ 17/ 19 1019.8R 3/ 8 2/100/ 8 CAPE LOOKOUT NC 2300 82 200/ 11/ 13 1019.4S BUOY 41002 2250 81 80 220/ 10/ 12 1022.0R 4/ 8 3/160/ 8 BUOY 41010 2220 82 83 210/ 4/ 6 1021.1R ST AUGUSTINE FL 2300 77 76 220/ 7/ 9 1021.4R $$

USA.gov is the U.S. government's official web portal to all federal, state and local government web resources and services.